Regional Weather Roundup
Issued by NWS Upton, NY

Home | Current Version | Previous Version | Text Only | Print | Product List | Glossary On
Versions: 1 2 3 4 5 6 7 8 9 10 11 12 13 14 15 16 17 18 19 20 21 22 23 24 25 26 27 28 29 30 31 32 33 34 35 36 37 38 39 40 41 42 43 44 45 46 47 48 49 50
000
ASUS41 KOKX 040618
RWROKX

REGIONAL WEATHER ROUNDUP
NATIONAL WEATHER SERVICE NEW YORK NY
200 AM EDT SAT JUL 04 2015

NOTE: "FAIR" INDICATES FEW OR NO CLOUDS BELOW 12,000 FEET WITH NO
SIGNIFICANT WEATHER AND/OR OBSTRUCTIONS TO VISIBILITY.

NYZ071-072-176-178-NJZ106-104-040700-
NEW YORK CITY METRO AREA


CITY           SKY/WX    TMP DP  RH WIND       PRES   REMARKS
CENTRAL PARK   CLOUDY    71  60  68 VRB5      30.01S
LAGUARDIA APRT CLOUDY    71  58  63 S6        29.97F
KENNEDY INTL   CLOUDY    71  59  65 SE5       29.99S
NEWARK/LIBERTY CLOUDY    72  61  68 SE3       29.97F
BRNX BOT. GARD   N/A     68  57  68 S2        29.99S
TETERBORO      CLOUDY    71  59  65 S3        29.97S
$$

NYZ177-179-078>081-040700-
LONG ISLAND NEW YORK

CITY           SKY/WX    TMP DP  RH WIND       PRES   REMARKS
FARMINGDALE    CLOUDY    70  59  68 CALM      29.99S
ISLIP          CLOUDY    67  58  72 E3        29.97F
SHIRLEY        CLOUDY    63  61  93 CALM      30.00S
WESTHAMPTON    CLOUDY    61  59  93 CALM      30.01S
MONTAUK POINT    N/A     67  64  90 CALM      30.01F
$$

NYZ052-065-067-040700-
HUDSON VALLEY

CITY           SKY/WX    TMP DP  RH WIND       PRES   REMARKS
WHITE PLAINS   CLOUDY    65  60  84 CALM      29.99S
NEWBURGH       MOCLDY    68  59  73 VRB5      29.99S
MONTGOMERY     MOCLDY    61  58  90 CALM      29.98S
POUGHKEEPSIE   FAIR      62  57  83 CALM      29.97S
ALBANY         CLOUDY    61  51  70 CALM      29.98R
$$

NJZ001-105-106-008-010-013-015-019>022-104-040700-
NEW JERSEY

CITY           SKY/WX    TMP DP  RH WIND       PRES   REMARKS
NEWARK/LIBERTY CLOUDY    72  61  68 SE3       29.97F
TETERBORO      CLOUDY    71  59  65 S3        29.97S
CALDWELL       CLOUDY    69  60  73 CALM      29.98S
MORRISTOWN     CLOUDY    70  63  78 CALM      29.98S
SOMERVILLE     LGT RAIN  67  63  87 CALM      29.95F
SUSSEX         CLOUDY    64  61  90 CALM      29.98S
ANDOVER          N/A     65  63  93 CALM      29.98S
TRENTON        CLOUDY    69  63  81 S3        29.96S
MILLVILLE      CLOUDY    67  66  97 E5        29.94F
ATLANTIC CITY  CLOUDY    70  66  87 E5        29.95F
WRIGHTSTOWN    CLOUDY    65  63  93 NE2       29.94F
TOMS RIVER     CLOUDY    64  63  94 CALM      29.96F
BELMAR         CLOUDY    68  61  77 CALM      29.97F
$$

PAZ047>061-062-071-040700-
EASTERN PENNSYLVANIA

CITY           SKY/WX    TMP DP  RH WIND       PRES   REMARKS
PHILADELPHIA   CLOUDY    70  65  84 CALM      29.95F
ALLENTOWN      CLOUDY    72  61  68 S5        29.96S
SCRANTON       CLOUDY    69  60  73 CALM      29.96F
$$

CTZ002-004>006-009-010-012-RIZ004-006-007-MAZ004-011-015-040700-
SOUTHERN NEW ENGLAND
 IN CT

CITY           SKY/WX    TMP DP  RH WIND       PRES   REMARKS
BRADLEY INTL   CLOUDY    63  56  78 CALM      29.99S
HARTFORD       CLOUDY    65  58  78 CALM      29.99S
DANBURY        MOCLDY    62  55  77 CALM      30.01R
WTRBRY/OXFORD  MOCLDY    63  55  77 CALM      30.02S
BRIDGEPORT     CLOUDY    69  61  75 CALM      29.99S
MERIDEN        CLOUDY    61  58  90 CALM      30.00R
NEW HAVEN      CLOUDY    64  61  90 CALM      30.00S
CHESTER        FAIR      63  61  94 CALM      30.02R
GROTON         MOCLDY    62  59  90 CALM      30.00S
WILLIMANTIC    CLOUDY    60  57  89 N3        30.01S

 IN RI

CITY           SKY/WX    TMP DP  RH WIND       PRES   REMARKS
PROVIDENCE     MOCLDY    63  59  87 S3        30.01S
BLOCK ISLAND   MOCLDY    64  59  82 S5        30.00F
WESTERLY       MOCLDY    61  58  90 CALM      30.01F

 IN MA

CITY           SKY/WX    TMP DP  RH WIND       PRES   REMARKS
BOSTON         NOT AVBL
WORCESTER      MOCLDY    62  52  69 W7        30.01F
WESTFIELD      MOCLDY    54  52  93 CALM      30.00R
PROVINCETOWN   MOCLDY    61   5  11 S7        30.02S
NANTUCKET        N/A     60  57  89 CALM      30.02S FOG
$$

ANZ330-335-338-340-345-350-353-355-040700-
COASTAL MARINE OBSERVATIONS


STATION/POSITION TIME  SKY/WX   TEMP    WIND        PRES    VSBY  WAVE
                                AIR SEA DIR/SP/G                  HT/PER
                 (UTC)          (F)     (DEG/KT/KT) (MB)    (MI)  (FT/S)
NY HARB ENTRANCE 0550            70 70  140/  8/ 10 1014.7          3/ 8
4S FIRE IS       0503               71                N/A           3/ 8
20S FIRE ISLAND  0550            69 68  130/  4/  6 1014.8          3/ 8
GREAT SOUTH BAY  0500            70 75  200/  6/  8   N/A
23SW MTP         0550            67 67  190/  4/  4 1015.5          3/ 9
HUDSON CANYON    NOT AVBL
KINGS POINT      0500            70 67  180/  4/  6 1014.6
CENTRAL LI SOUND NOT AVBL
EASTERN LI SOUND 0500            65 64   80/  2/  4   N/A
ROBBINS REEF     0500            71     150/ 12/ 13 1014.0
$$


>>>>>>>>>>>>>>>>>>>>>>>>>>>> KEY <<<<<<<<<<<<<<<<<<<<<<<<<<<
>                                                          <
>     SKY/WX - SKY CONDITION/PRESENT WEATHER               <
>     TMP    - TEMPERATURE IN FAHRENHEIT                   <
>     DP     - DEWPOINT IN FAHRENHEIT                      <
>     RH     - RELATIVE HUMIDITY IN PERCENT                <
>     WIND   - DIRECTION AND SPEED IN MPH                  <
>     PRES   - MEAN SEA LEVEL PRESSURE IN INCHES OF HG     <
>     WCI    - WIND CHILL INDEX                            <
>     VSB    - VISIBILITY IN MILES                         <
>     HX     - HEAT INDEX                                  <
>     TC     - TEMPERATURE IN CELSIUS                      <
>     VRB    - VARIABLE WIND DIRECTION                     <
>                                                          <
>>>>>>>>>>>>>>>>>>>>>>>>>>>> KEY <<<<<<<<<<<<<<<<<<<<<<<<<<<




USA.gov is the U.S. government's official web portal to all federal, state and local government web resources and services.